Date,TemperatureHighF,TemperatureAvgF,TemperatureLowF,DewpointHighF,DewpointAvgF,DewpointLowF,HumidityHigh,HumidityAvg,HumidityLow,PressureMaxIn,PressureMinIn,WindSpeedMaxMPH,WindSpeedAvgMPH,GustSpeedMaxMPH,PrecipitationSumIn
2013-1-1,43.6,37.3,32.1,43.6,37.3,32.1,100,100,100,30.36,30.22,0,0,2,0.01
2013-1-2,43.0,35.1,31.6,43.0,35.1,31.6,100,100,100,30.23,30.10,0,0,1,0.01
2013-1-3,53.8,44.3,33.3,49.7,43.2,33.3,100,96,80,30.30,30.05,2,0,10,0.13
2013-1-4,49.7,45.0,39.0,49.1,45.0,39.0,100,100,97,30.32,30.16,0,0,2,0.01
2013-1-5,49.5,45.0,39.3,49.5,45.0,39.3,100,100,98,30.21,30.12,0,0,4,0.18
2013-1-6,49.5,45.6,42.8,49.5,45.5,42.8,100,99,96,30.25,30.18,0,0,3,0.09
2013-1-7,51.6,50.2,49.3,51.6,50.2,49.3,100,100,100,30.30,30.17,1,0,3,0.29
2013-1-8,51.0,50.1,49.5,51.0,49.9,48.7,100,99,97,30.30,30.00,2,1,4,0.04
2013-1-9,50.6,44.7,37.2,50.2,43.6,37.1,100,96,83,30.06,29.87,2,1,5,0.38
2013-1-10,45.1,40.9,36.1,43.9,39.4,36.1,100,95,75,30.24,30.05,2,0,4,0.58
2013-1-11,44.2,39.5,32.8,43.4,38.8,32.8,100,97,86,30.32,30.19,2,0,2,0.13
2013-1-12,43.0,35.8,30.0,38.9,34.5,29.8,100,95,74,30.40,30.29,1,0,2,0.00
2013-1-13,34.0,29.8,28.6,31.7,29.3,28.1,99,98,90,30.45,30.38,0,0,1,0.00
2013-1-14,42.1,35.1,28.3,38.2,33.2,27.8,99,93,73,30.55,30.50,1,0,2,0.00
2013-1-15,47.2,34.6,28.5,42.9,33.1,28.3,100,95,83,30.59,30.53,2,0,6,0.00
2013-1-16,50.3,43.1,31.3,45.4,40.8,31.3,100,92,81,30.51,30.40,1,0,2,0.01
2013-1-19,42.8,41.9,41.1,42.7,41.8,40.8,100,100,98,30.30,30.27,0,0,1,0.00
2013-1-20,43.6,36.3,30.8,43.3,36.2,30.8,100,100,98,30.29,30.19,1,0,1,0.00
2013-1-21,44.9,35.7,30.4,44.2,35.5,30.1,100,99,95,30.22,30.09,1,0,1,0.01
2013-1-22,57.2,43.4,33.8,48.8,40.0,33.6,100,89,50,30.09,29.92,1,0,2,0.00
2013-1-23,47.4,44.1,36.7,47.4,44.0,36.7,100,100,99,30.20,29.88,1,0,1,0.94
2013-1-24,52.0,42.9,33.7,51.4,42.7,33.7,100,99,96,30.21,30.11,1,0,4,0.07
2013-1-25,50.3,47.8,40.9,50.3,47.7,40.9,100,100,97,30.17,30.04,2,0,6,0.47
2013-1-26,47.2,43.8,41.5,46.5,43.6,41.5,100,99,91,30.17,30.03,1,0,2,0.33
2013-1-27,46.4,41.6,38.8,45.9,41.6,38.8,100,100,95,30.26,30.17,1,0,2,0.70
2013-1-28,48.2,45.7,43.4,47.2,45.2,43.4,100,98,90,30.39,30.20,2,0,4,0.08
2013-1-29,48.1,45.9,41.2,47.6,45.5,41.2,100,99,94,30.57,30.39,2,0,3,0.18
2013-1-30,51.0,44.5,40.1,50.5,44.4,40.1,100,100,95,30.58,30.49,0,0,1,0.01
2013-1-31,48.0,41.1,37.3,47.5,41.1,37.3,100,100,98,30.48,30.35,1,0,1,0.00
2013-2-1,53.0,38.8,32.8,49.5,38.3,32.8,100,98,88,30.35,30.21,2,0,4,0.00
2013-2-2,52.2,40.4,35.7,49.5,40.1,35.7,100,99,86,30.36,30.22,0,0,4,0.00
2013-2-3,51.6,47.5,42.3,48.3,46.4,42.0,100,96,82,30.35,30.25,0,0,0,0.00
2013-2-4,50.3,44.0,36.9,47.6,42.8,36.9,100,96,89,30.25,30.03,2,0,2,0.00
2013-2-5,51.8,48.3,45.5,49.5,47.1,44.5,100,96,91,30.06,29.98,1,1,3,0.13
2013-2-7,43.1,41.2,38.5,43.1,41.2,38.5,100,100,99,30.06,30.00,1,1,2,0.78
2013-2-8,36.0,33.8,32.4,36.0,33.8,32.4,100,100,100,30.21,30.15,0,0,0,0.00
2013-2-9,49.2,42.0,34.5,44.5,40.3,34.2,100,94,74,30.33,30.29,1,0,3,0.00
2013-2-10,50.3,46.4,42.5,45.9,43.9,42.0,100,91,74,30.33,30.30,2,0,3,0.01
2013-2-11,50.5,46.7,43.0,46.5,42.8,39.9,99,87,68,30.45,30.33,2,0,2,0.04
2013-2-12,51.0,48.0,46.1,50.5,47.9,46.1,100,100,96,30.55,30.45,0,0,2,0.14
2013-2-13,52.3,48.1,45.2,50.6,47.5,45.2,100,98,89,30.54,30.49,1,0,2,0.01
2013-2-14,48.1,46.0,44.1,47.8,45.7,44.1,100,99,98,30.43,30.42,0,0,1,0.00
2013-2-15,54.8,47.5,36.9,50.3,46.0,36.9,100,95,83,30.41,30.22,2,0,2,0.00
2013-2-16,50.8,47.7,44.9,48.2,46.2,42.1,100,95,85,30.35,30.29,1,0,2,0.02
2013-2-17,49.4,44.0,36.5,43.6,40.7,35.5,100,89,72,30.33,30.11,2,0,2,0.02
2013-2-18,48.8,41.2,34.6,44.5,39.6,34.1,99,94,84,30.10,29.76,1,0,2,0.09
2013-2-19,46.0,42.0,37.1,43.8,40.8,37.1,100,96,87,30.05,29.66,1,0,2,0.46
2013-2-20,48.3,41.9,35.0,46.3,41.2,35.0,100,97,85,30.18,30.05,1,0,3,0.25
2013-2-21,46.4,41.5,38.5,46.2,41.3,38.5,100,100,95,30.31,30.18,0,0,1,0.01
2013-2-22,47.2,46.9,46.7,47.2,46.9,46.7,100,100,100,30.11,30.07,3,2,3,0.58
2013-2-23,37.6,37.0,36.7,37.1,36.7,36.4,99,99,98,30.49,30.47,0,0,0,0.11
2013-2-24,50.7,42.3,33.7,45.6,39.7,33.7,100,91,69,30.48,30.20,1,0,3,0.06
2013-2-25,50.3,43.7,34.7,46.6,41.8,34.4,100,93,70,30.44,30.18,2,0,3,0.26
2013-2-26,49.4,40.4,32.2,42.1,37.9,32.2,100,92,68,30.44,30.30,1,0,1,0.00
2013-2-27,53.7,48.8,41.9,51.2,46.2,41.4,100,91,71,30.32,30.25,2,0,3,0.29
2013-2-28,52.2,51.4,50.8,52.2,51.3,50.6,100,100,99,30.51,30.25,2,1,4,0.38
2013-3-1,56.7,51.3,47.7,54.8,50.8,47.7,100,98,91,30.51,30.36,1,0,1,0.00
2013-3-2,53.1,49.6,46.5,51.2,49.0,45.5,100,98,91,30.35,30.25,1,0,2,0.01
2013-3-3,53.7,45.3,36.5,45.2,41.5,36.0,98,87,68,30.31,30.19,2,1,4,0.00
2013-3-4,35.8,33.4,31.7,35.3,33.1,31.5,99,99,98,30.19,30.08,0,0,0,0.00